Location: Boiro
(42.6475°N, 8.8834°W)
Time: 21:09:06
(UTC+02:00)

AO-73 - Pass Details

Date: 28 April 2024
Orbit: 560 x 625 km, 97.7° (Epoch: 20 May)

Event Time Altitude Azimuth Distance (km) Brightness Sun altitude
Rises 05:04:09 0° 23° (NNE) 2,924 ? -23.3°
Reaches altitude 10° 05:06:36 10° 34° (NE) 2,013 ? -23.0°
Maximum altitude 05:10:27 30° 96° (E) 1,138 ? -22.6°
Enters shadow 05:12:51 18° 144° (SE) 1,532 ? -22.3°
